Fairbanks, AK

4:02 PM AKST on December 07, 2019 (GMT -0900)
Fairbanks International

Weather History for PAFA - December, 1974

Change the Weather History Date:

Thursday, December 26, 1974

  Actual Average Record
Temperature  
Mean Temperature -10 °F -  
Max Temperature -6 °F - 42 °F (2001)
Min Temperature -14 °F - -56 °F (1961)
Degree Days  
Heating Degree Days 75    
Moisture  
Dew Point -20 °F    
Average Humidity 58    
Maximum Humidity 62    
Minimum Humidity 53    
Precipitation  
Precipitation 0.01 in - 0.49 in (1965)
Sea Level Pressure  
Sea Level Pressure 29.53 in    
Wind  
Wind Speed 1 mph (SW)    
Max Wind Speed 5 mph    
Max Gust Speed -    
Visibility 6 miles    
Events Snow    
T = Trace of Precipitation, MM = Missing Value Source: NWS Daily Summary

Daily Weather History Graph

Daily Weather History Graph

Search for Another Location

Airport or City:

Astronomy

Dec. 26, 1974 Rise Set
Actual Time 9:59 AM AHST 1:45 PM AHST
Civil Twilight 8:34 AM AHST 3:09 PM AHST
Nautical Twilight 7:22 AM AHST 4:21 PM AHST
Astronomical Twilight 6:21 AM AHST 5:23 PM AHST
Moon 11:56 AM AHST (12/26) 7:15 AM AHST (12/26)
Length of Visible Light 6h 35m
Length of Day
3h 46m
Waxing Gibbous, 93% of the Moon is Illuminated
Dec 26
Waxing Gibbous
Dec 28
Full
Jan 4
Last Quarter
Jan 12
New
Jan 20
First Quarter

Hourly Weather History & Observations

Time (AHST) Temp. Windchill Dew Point Humidity Pressure Visibility Wind Dir Wind Speed Gust Speed Precip Events Conditions
12:00 AM -11.0 °F - -24.0 °F 53% 29.46 in 10.0 mi Calm Calm - N/A   Overcast
1:00 AM -14.1 °F - -25.1 °F 58% 29.46 in 10.0 mi Calm Calm - N/A Snow Light Snow
2:00 AM -13.0 °F -22.7 °F -25.1 °F 55% 29.46 in 7.0 mi NNE 3.5 mph - N/A Snow Light Snow
3:00 AM -11.9 °F -21.5 °F -23.1 °F 58% 29.46 in 7.0 mi WSW 3.5 mph - N/A Snow Light Snow
4:00 AM -11.0 °F - -22.0 °F 58% 29.46 in 6.0 mi Calm Calm - N/A Snow Light Snow
5:00 AM -9.0 °F - -20.0 °F 59% 29.46 in 6.0 mi Calm Calm - N/A Snow Light Snow
6:00 AM -9.0 °F - -18.9 °F 62% 29.46 in 6.0 mi Calm Calm - N/A Snow Light Snow
6:31 AM - - - N/A% 29.40 in 3.0 mi Calm Calm - N/A   Unknown
7:00 AM -9.0 °F - -18.9 °F 62% 29.46 in 3.0 mi Calm Calm - N/A Snow Light Snow
8:00 AM -8.0 °F -16.9 °F -18.9 °F 59% 29.48 in 5.0 mi South 3.5 mph - N/A Snow Light Snow
9:00 AM -8.0 °F -16.9 °F -18.9 °F 59% 29.50 in 5.0 mi SSE 3.5 mph - N/A Snow Light Snow
10:00 AM -8.0 °F -19.2 °F -18.0 °F 61% 29.51 in 5.0 mi South 4.6 mph - N/A Snow Light Snow
11:00 AM -6.0 °F - -17.0 °F 59% 29.52 in 3.0 mi Calm Calm - N/A Snow Light Snow
12:00 PM - - - N/A% 29.54 in 3.0 mi Calm Calm - N/A   Unknown
12:26 PM - - - N/A% 29.48 in 7.0 mi South 4.6 mph - N/A   Unknown
1:00 PM - - - N/A% 29.55 in 5.0 mi Calm Calm - N/A   Unknown
2:00 PM -8.0 °F - -18.9 °F 59% 29.56 in 7.0 mi Calm Calm - N/A Snow Light Snow
3:00 PM - - - N/A% 29.56 in 7.0 mi Calm Calm - N/A   Unknown
4:00 PM -7.1 °F -18.1 °F -18.0 °F 59% 29.57 in 6.0 mi North 4.6 mph - N/A Snow Light Snow
5:00 PM -7.1 °F -15.9 °F -18.0 °F 59% 29.59 in 3.0 mi NNW 3.5 mph - N/A Snow Light Snow
6:00 PM - - - N/A% 29.60 in 3.0 mi Calm Calm - N/A   Unknown
7:00 PM -7.1 °F - -18.9 °F 56% 29.61 in 4.0 mi Calm Calm - N/A Snow Light Snow
8:00 PM -8.0 °F - -20.0 °F 56% 29.62 in 7.0 mi Calm Calm - 0.01 in Snow Light Snow
9:00 PM -9.0 °F - -20.0 °F 59% 29.64 in 7.0 mi Calm Calm - N/A Snow Light Snow
10:00 PM -11.0 °F - -22.0 °F 58% 29.66 in 5.0 mi Calm Calm - N/A Snow Light Snow
11:00 PM - - - N/A% 29.67 in 6.0 mi Calm Calm - N/A   Unknown